KB2UHF-8 Weather Reports


Display with metric or nautical units.
time (UTC)temp
F
wind
direction
speed
MPH
gust
MPH
rain 1hr
in
rain 24hr
in
rain mn
in
humidity
%
barometer
mb
20260510045517 48 315 3.0 5.0 0.00 0.00 0.00 45 1013.7
20260510044517 48 315 3.0 5.0 0.00 0.00 0.00 44 1013.6
20260510043517 48 315 3.0 6.0 0.00 0.00 0.00 44 1013.6
20260510042517 49 315 3.0 8.0 0.00 0.00 0.00 43 1013.6
20260510041537 49 315 4.0 8.0 0.00 0.00 0.00 43 1013.5
20260510040517 49 315 3.0 8.0 0.00 0.00 0.00 43 1013.3
20260510035517 49 315 4.0 8.0 0.00 0.00 0.00 42 1013.2
20260510034517 49 293 3.0 5.0 0.00 0.00 0.00 41 1013.2
20260510033517 50 293 4.0 9.0 0.00 0.00 0.00 41 1013.1
20260510032518 50 315 3.0 8.0 0.00 0.00 0.00 40 1012.8
20260510031517 51 315 3.0 7.0 0.00 0.00 0.00 39 1012.7
20260510030517 51 315 4.0 9.0 0.00 0.00 0.00 39 1012.5
20260510025517 51 315 4.0 9.0 0.00 0.00 0.00 38 1012.5
20260510024517 51 315 3.0 6.0 0.00 0.00 0.00 38 1012.1
20260510023517 52 293 4.0 10.0 0.00 0.00 0.00 37 1011.9
20260510022517 52 315 4.0 9.0 0.00 0.00 0.00 36 1011.8
20260510021557 52 293 3.0 8.0 0.00 0.00 0.00 37 1011.4
20260510020517 52 315 2.0 4.0 0.00 0.00 0.00 37 1011.4
20260510015517 53 315 4.0 9.0 0.00 0.00 0.00 37 1011.1
20260510014517 53 315 4.0 8.0 0.00 0.00 0.00 36 1010.9
20260510013517 54 315 6.0 12.0 0.00 0.00 0.00 34 1010.7
20260510012557 54 315 5.0 10.0 0.00 0.00 0.00 34 1010.4
20260510011516 55 315 5.0 11.0 0.00 0.00 0.00 34 1010.3
20260510010517 56 315 4.0 8.0 0.00 0.00 0.00 34 1010.0
20260510005517 56 315 4.0 9.0 0.00 0.00 0.00 32 1009.7
20260510004517 57 315 3.0 10.0 0.00 0.00 0.00 34 1009.6
20260510003536 57 315 5.0 9.0 0.00 0.00 0.00 32 1009.3
20260510002517 58 315 7.0 12.0 0.00 0.00 0.00 31 1009.2
20260510001516 59 338 7.0 14.0 0.00 0.00 0.00 32 1009.2
20260510000518 59 315 7.0 12.0 0.00 0.00 0.00 31 1008.9
20260509235517 60 293 6.0 13.0 0.00 0.00 0.00 31 1008.7
20260509234516 60 315 9.0 15.0 0.00 0.00 0.00 31 1008.7
20260509233516 60 293 6.0 13.0 0.00 0.00 0.00 32 1008.7
20260509232516 60 315 9.0 15.0 0.00 0.00 0.00 33 1008.6
20260509231517 61 338 9.0 16.0 0.00 0.00 0.00 33 1008.5
20260509230517 61 338 8.0 13.0 0.00 0.00 0.00 30 1008.2
20260509225516 61 338 10.0 18.0 0.00 0.00 0.00 33 1008.0
20260509224516 61 293 10.0 18.0 0.00 0.00 0.00 35 1007.7
20260509223516 62 315 9.0 18.0 0.00 0.00 0.00 35 1007.9
20260509222536 62 338 9.0 16.0 0.00 0.00 0.00 37 1007.7
20260509221516 62 315 9.0 16.0 0.00 0.00 0.00 38 1007.7
20260509220516 62 270 9.0 16.0 0.00 0.00 0.00 36 1007.4
20260509215516 62 315 8.0 16.0 0.00 0.00 0.00 37 1007.3
20260509214516 61 315 10.0 16.0 0.00 0.00 0.00 37 1007.2
20260509213516 61 315 10.0 18.0 0.00 0.00 0.00 39 1007.2
20260509212516 62 338 10.0 20.0 0.00 0.00 0.00 38 1007.2
20260509211516 61 315 11.0 19.0 0.00 0.00 0.00 37 1007.0
20260509210516 61 315 12.0 16.0 0.00 0.00 0.00 37 1007.0
20260509205516 61 293 9.0 19.0 0.00 0.00 0.00 37 1006.9
20260509204516 61 315 8.0 17.0 0.00 0.00 0.00 43 1006.9
20260509203516 61 315 9.0 17.0 0.00 0.00 0.00 40 1006.8
20260509202538 62 338 9.0 20.0 0.00 0.00 0.00 39 1007.0
20260509201536 61 315 8.0 17.0 0.00 0.00 0.00 41 1006.7
20260509200518 60 315 11.0 19.0 0.00 0.00 0.00 43 1006.7
20260509195538 60 315 10.0 16.0 0.00 0.00 0.00 44 1006.5
20260509194516 61 270 11.0 21.0 0.00 0.00 0.00 43 1006.5
20260509193516 61 315 12.0 26.0 0.00 0.00 0.00 43 1006.4
20260509192518 61 315 11.0 20.0 0.00 0.00 0.00 41 1006.5
20260509191536 61 315 11.0 20.0 0.00 0.00 0.00 45 1006.3
20260509190518 62 338 9.0 24.0 0.00 0.00 0.00 46 1006.0
20260509185516 61 293 11.0 21.0 0.00 0.00 0.00 43 1006.0
20260509184516 61 315 11.0 19.0 0.00 0.00 0.00 47 1006.1
20260509183516 61 338 9.0 17.0 0.00 0.00 0.00 50 1005.8
20260509182516 60 315 8.0 17.0 0.00 0.00 0.00 52 1005.8
20260509181516 60 315 9.0 17.0 0.00 0.00 0.00 50 1005.9
20260509180516 61 338 10.0 19.0 0.00 0.00 0.00 52 1005.9
20260509175516 61 315 9.0 16.0 0.00 0.00 0.00 53 1005.9
20260509174516 60 315 7.0 12.0 0.00 0.00 0.00 52 1005.8
20260509173616 60 270 11.0 20.0 0.00 0.00 0.00 47 1005.7
20260509172516 60 270 12.0 19.0 0.00 0.00 0.00 48 1005.6
20260509171516 60 315 11.0 22.0 0.00 0.00 0.00 50 1005.6
20260509170516 60 293 10.0 17.0 0.00 0.00 0.00 50 1005.6
20260509165516 60 293 11.0 20.0 0.00 0.00 0.00 53 1005.5
20260509164536 58 315 11.0 20.0 0.00 0.00 0.00 56 1005.3
20260509163516 59 315 10.0 20.0 0.00 0.00 0.00 56 1005.1
20260509162516 60 315 11.0 17.0 0.00 0.00 0.00 55 1005.0
20260509161516 60 293 8.0 15.0 0.00 0.00 0.00 54 1004.9
20260509160536 59 315 10.0 17.0 0.00 0.00 0.00 54 1004.7
20260509155516 59 315 7.0 17.0 0.00 0.00 0.00 56 1004.6
20260509154516 59 270 9.0 20.0 0.00 0.00 0.00 55 1004.5
20260509153516 60 315 8.0 16.0 0.00 0.00 0.00 50 1004.4
20260509152516 59 293 7.0 14.0 0.00 0.00 0.00 46 1004.1
20260509151516 58 270 8.0 13.0 0.00 0.00 0.00 46 1004.0
20260509150516 58 270 6.0 11.0 0.00 0.00 0.00 48 1003.8
20260509145518 57 248 7.0 12.0 0.00 0.00 0.00 48 1004.0
20260509144516 56 225 4.0 10.0 0.00 0.00 0.00 52 1003.7
20260509143536 55 248 2.0 6.0 0.00 0.00 0.00 57 1003.8
20260509142516 54 248 2.0 5.0 0.00 0.00 0.00 52 1003.7
20260509141516 55 270 2.0 5.0 0.00 0.00 0.00 52 1003.7
20260509140516 55 248 2.0 7.0 0.00 0.00 0.00 49 1003.9
20260509135536 55 270 2.0 6.0 0.00 0.00 0.00 50 1004.3
20260509134516 54 293 2.0 6.0 0.00 0.00 0.00 50 1004.0
20260509133516 54 270 4.0 8.0 0.00 0.00 0.00 51 1003.9
20260509132536 54 270 6.0 13.0 0.00 0.00 0.00 51 1004.2
20260509131516 52 270 6.0 11.0 0.00 0.00 0.00 54 1004.6
20260509130516 52 270 5.0 10.0 0.00 0.00 0.00 55 1004.4
20260509125516 51 248 4.0 9.0 0.00 0.00 0.00 56 1003.8
20260509124515 50 270 4.0 8.0 0.00 0.00 0.00 60 1003.6
20260509123556 48 293 5.0 7.0 0.00 0.00 0.00 63 1003.6
20260509122516 47 270 3.0 6.0 0.00 0.00 0.00 65 1002.9
20260509121516 47 248 3.0 4.0 0.00 0.00 0.00 64 1002.6
20260509120556 47 248 3.0 7.0 0.00 0.00 0.00 63 1002.4
20260509115516 47 248 3.0 4.0 0.00 0.00 0.00 62 1002.3
20260509114516 48 248 2.0 3.0 0.00 0.00 0.00 60 1002.2
20260509113535 50 248 2.0 3.0 0.00 0.00 0.00 53 1002.2
20260509112515 51 248 2.0 3.0 0.00 0.00 0.00 50 1002.2
20260509111516 51 225 3.0 6.0 0.00 0.00 0.00 49 1002.3
20260509110515 50 248 2.0 4.0 0.00 0.00 0.00 49 1002.3
20260509105515 50 270 2.0 4.0 0.00 0.00 0.00 50 1002.4
20260509104515 50 248 2.0 3.0 0.00 0.00 0.00 50 1002.5
20260509103515 50 270 2.0 4.0 0.00 0.00 0.00 51 1002.7
20260509102535 50 248 2.0 4.0 0.00 0.00 0.00 51 1002.6
20260509101515 50 248 2.0 4.0 0.00 0.00 0.00 52 1002.5
20260509100515 50 248 3.0 6.0 0.00 0.00 0.00 52 1002.5
20260509095515 50 270 3.0 6.0 0.00 0.00 0.00 53 1002.5
20260509094516 50 270 3.0 7.0 0.00 0.00 0.00 53 1002.7
20260509093515 50 270 3.0 7.0 0.00 0.00 0.00 52 1002.6
20260509092515 50 270 3.0 6.0 0.00 0.00 0.00 54 1002.5
20260509091515 50 270 3.0 6.0 0.00 0.00 0.00 54 1002.6
20260509090515 51 270 3.0 6.0 0.00 0.00 0.00 54 1002.4
20260509085535 50 270 3.0 7.0 0.00 0.00 0.00 54 1002.6
20260509084515 51 270 4.0 7.0 0.00 0.00 0.00 54 1002.7
20260509083515 51 270 3.0 7.0 0.00 0.00 0.00 53 1002.5
20260509082515 52 293 3.0 6.0 0.00 0.00 0.00 50 1002.5
20260509081535 53 293 3.0 7.0 0.00 0.00 0.00 49 1002.5
20260509080515 54 293 3.0 6.0 0.00 0.00 0.00 49 1002.5
20260509075515 54 293 4.0 8.0 0.00 0.00 0.00 47 1002.4
20260509074515 55 270 3.0 8.0 0.00 0.00 0.00 46 1002.5
20260509073535 55 293 4.0 8.0 0.00 0.00 0.00 46 1002.7
20260509072517 56 293 5.0 10.0 0.00 0.00 0.00 46 1002.7
20260509071517 56 270 5.0 9.0 0.00 0.00 0.00 46 1002.7
20260509070517 56 293 5.0 9.0 0.00 0.00 0.00 46 1002.8
20260509065517 56 270 6.0 10.0 0.00 0.00 0.00 46 1002.7
20260509064517 57 270 6.0 11.0 0.00 0.00 0.00 46 1002.7
20260509063537 57 293 5.0 10.0 0.00 0.00 0.00 45 1002.7
20260509062517 57 270 4.0 9.0 0.00 0.00 0.00 45 1002.7
20260509061517 57 270 5.0 10.0 0.00 0.00 0.00 45 1002.6
20260509060537 58 270 5.0 11.0 0.00 0.00 0.00 45 1002.7
20260509055517 57 270 4.0 8.0 0.00 0.00 0.00 44 1002.6
20260509054517 58 270 3.0 7.0 0.00 0.00 0.00 44 1002.6
20260509053517 58 248 4.0 8.0 0.00 0.00 0.00 43 1002.6
20260509052517 58 248 4.0 7.0 0.00 0.00 0.00 43 1002.6
20260509051517 58 248 4.0 8.0 0.00 0.00 0.00 42 1002.7
20260509050517 58 248 3.0 4.0 0.00 0.00 0.00 42 1002.6